EZY1KA EDDL-EGKK

Flight info

Callsign EZY1KA
Flight time 1h 0m
Altitude 32000
Route MODRU2K MODRU Z717 MAS UM617 SOGRI DCT DENUT L610 TEBRA
Aircraft A319/M-SDE3FGHIRWY/LB1

Departure

Time 2026-05-05 09:53
Airport Düsseldorf Airport (EDDL)

Arrival

Time 2026-05-05 10:53
Airport London Gatwick Airport (EGKK)
Time Latitude Longitude Altitude Speed Heading
2026-05-05 09:33 51.28046 6.76217 118 ft 0 kts 163°
2026-05-05 09:43 51.28057 6.76212 114 ft 4 kts 166°
2026-05-05 09:44 51.28077 6.76204 116 ft 4 kts 166°
2026-05-05 09:44 51.28103 6.76196 114 ft 4 kts 180°
2026-05-05 09:44 51.28127 6.76205 114 ft 3 kts 229°
2026-05-05 09:44 51.28130 6.76210 114 ft 0 kts 233°
2026-05-05 09:47 51.28126 6.76201 117 ft 3 kts 233°
2026-05-05 09:47 51.28103 6.76152 116 ft 8 kts 233°
2026-05-05 09:47 51.28088 6.76062 116 ft 11 kts 301°
2026-05-05 09:48 51.28158 6.76079 116 ft 14 kts 49°
2026-05-05 09:48 51.28225 6.76219 118 ft 17 kts 52°
2026-05-05 09:48 51.28307 6.76389 116 ft 22 kts 52°
2026-05-05 09:48 51.28410 6.76605 116 ft 27 kts 52°
2026-05-05 09:49 51.28532 6.76861 117 ft 30 kts 53°
2026-05-05 09:49 51.28657 6.77125 118 ft 30 kts 52°
2026-05-05 09:49 51.28783 6.77387 115 ft 30 kts 52°
2026-05-05 09:49 51.28908 6.77649 116 ft 30 kts 53°
2026-05-05 09:50 51.29033 6.77910 118 ft 29 kts 53°
2026-05-05 09:50 51.29157 6.78170 117 ft 29 kts 53°
2026-05-05 09:50 51.29280 6.78430 116 ft 29 kts 52°
2026-05-05 09:50 51.29403 6.78572 118 ft 20 kts
2026-05-05 09:51 51.29517 6.78521 118 ft 16 kts 301°
2026-05-05 09:51 51.29495 6.78417 115 ft 0 kts 232°
2026-05-05 09:52 51.29495 6.78416 116 ft 1 kts 232°
2026-05-05 09:52 51.29456 6.78337 118 ft 27 kts 232°
2026-05-05 09:52 51.29166 6.77721 118 ft 108 kts 233°
2026-05-05 09:52 51.28575 6.76488 139 ft 166 kts 230°
2026-05-05 09:53 51.27815 6.74881 413 ft 193 kts 237°
2026-05-05 09:53 51.27008 6.73129 1160 ft 195 kts 234°
2026-05-05 09:53 51.26164 6.71422 1951 ft 197 kts 231°
2026-05-05 09:53 51.25320 6.69739 2716 ft 199 kts 233°
2026-05-05 09:54 51.24617 6.67674 3154 ft 222 kts 250°
2026-05-05 09:54 51.24290 6.65133 3526 ft 250 kts 268°
2026-05-05 09:54 51.24536 6.62388 4571 ft 254 kts 287°
2026-05-05 09:54 51.25355 6.59843 5498 ft 264 kts 306°
2026-05-05 09:55 51.26516 6.57484 6453 ft 276 kts 308°
2026-05-05 09:55 51.27752 6.55074 7364 ft 284 kts 309°
2026-05-05 09:55 51.29016 6.52615 8332 ft 288 kts 309°
2026-05-05 09:55 51.30280 6.50085 9251 ft 295 kts 306°
2026-05-05 09:56 51.31325 6.47282 10247 ft 295 kts 295°
2026-05-05 09:56 51.31992 6.44176 11162 ft 297 kts 281°
2026-05-05 09:56 51.32123 6.40875 12062 ft 300 kts 265°
2026-05-05 09:56 51.31705 6.37600 12918 ft 306 kts 253°
2026-05-05 09:57 51.30916 6.34348 13432 ft 322 kts 244°
2026-05-05 09:57 51.29697 6.31317 14196 ft 324 kts 228°
2026-05-05 09:57 51.28005 6.28984 14987 ft 321 kts 212°
2026-05-05 09:57 51.26037 6.27381 15863 ft 316 kts 203°
2026-05-05 09:58 51.24015 6.25953 16488 ft 325 kts 203°
2026-05-05 09:58 51.21885 6.24378 16636 ft 348 kts 205°
2026-05-05 09:58 51.19665 6.22667 17137 ft 358 kts 205°
2026-05-05 09:58 51.17415 6.20910 17854 ft 361 kts 205°
2026-05-05 09:59 51.15151 6.19150 18550 ft 364 kts 205°
2026-05-05 09:59 51.12860 6.17392 19176 ft 367 kts 205°
2026-05-05 09:59 51.10581 6.15658 19813 ft 370 kts 205°
2026-05-05 09:59 51.08249 6.13898 20454 ft 373 kts 205°
2026-05-05 10:00 51.05891 6.12123 21082 ft 376 kts 205°
2026-05-05 10:00 51.03608 6.10061 21694 ft 380 kts 214°
2026-05-05 10:00 51.01604 6.07299 22304 ft 385 kts 226°
2026-05-05 10:00 50.99966 6.03912 22929 ft 390 kts 237°
2026-05-05 10:01 50.98634 6.00141 23517 ft 393 kts 240°
2026-05-05 10:01 50.97358 5.96290 24019 ft 397 kts 245°
2026-05-05 10:01 50.96472 5.92127 24528 ft 400 kts 253°
2026-05-05 10:01 50.95740 5.87868 25052 ft 402 kts 253°
2026-05-05 10:02 50.94996 5.83593 25576 ft 403 kts 253°
2026-05-05 10:02 50.94235 5.79300 26103 ft 404 kts 252°
2026-05-05 10:02 50.93468 5.75005 26605 ft 406 kts 252°
2026-05-05 10:02 50.92694 5.70689 27114 ft 407 kts 252°
2026-05-05 10:03 50.91918 5.66363 27596 ft 409 kts 252°
2026-05-05 10:03 50.91137 5.62024 28099 ft 411 kts 252°
2026-05-05 10:03 50.90350 5.57671 28595 ft 412 kts 251°
2026-05-05 10:03 50.89557 5.53294 29083 ft 414 kts 251°
2026-05-05 10:04 50.88763 5.48904 29546 ft 416 kts 251°
2026-05-05 10:04 50.87964 5.44489 29998 ft 418 kts 251°
2026-05-05 10:04 50.87164 5.40065 30385 ft 419 kts 251°
2026-05-05 10:04 50.86359 5.35618 30774 ft 420 kts 251°
2026-05-05 10:05 50.85551 5.31173 31156 ft 421 kts 250°
2026-05-05 10:05 50.84735 5.26706 31536 ft 422 kts 250°
2026-05-05 10:05 50.83914 5.22249 31838 ft 422 kts 250°
2026-05-05 10:05 50.83099 5.17827 31898 ft 412 kts 250°
2026-05-05 10:06 50.82318 5.13566 31900 ft 396 kts 250°
2026-05-05 10:06 50.81733 5.09347 31900 ft 394 kts 259°
2026-05-05 10:06 50.81666 5.04998 31903 ft 399 kts 270°
2026-05-05 10:06 50.82151 5.00654 31905 ft 405 kts 281°
2026-05-05 10:07 50.84468 4.92496 31911 ft 412 kts 292°
2026-05-05 10:07 50.87038 4.84403 31916 ft 411 kts 291°
2026-05-05 10:08 50.89594 4.76300 31918 ft 411 kts 291°
2026-05-05 10:08 50.92138 4.68197 31920 ft 410 kts 291°
2026-05-05 10:09 50.94673 4.60106 31922 ft 409 kts 291°
2026-05-05 10:09 50.97197 4.52020 31920 ft 409 kts 292°
2026-05-05 10:10 50.99711 4.43933 31918 ft 409 kts 292°
2026-05-05 10:10 51.01796 4.37208 31919 ft 408 kts 292°
2026-05-05 10:11 51.04302 4.29113 31940 ft 408 kts 292°
2026-05-05 10:11 51.06801 4.21005 31939 ft 408 kts 292°
2026-05-05 10:12 51.09297 4.12900 31933 ft 408 kts 292°
2026-05-05 10:12 51.11787 4.04792 31929 ft 408 kts 292°
2026-05-05 10:13 51.14261 3.96673 31918 ft 407 kts 292°
2026-05-05 10:13 51.16730 3.88562 31915 ft 407 kts 292°
2026-05-05 10:14 51.19177 3.80496 31918 ft 407 kts 292°
2026-05-05 10:14 51.21630 3.72373 31920 ft 406 kts 292°
2026-05-05 10:15 51.23816 3.64113 31922 ft 401 kts 282°
2026-05-05 10:15 51.24998 3.55447 31926 ft 400 kts 278°
2026-05-05 10:16 51.26144 3.46767 31934 ft 399 kts 278°
2026-05-05 10:16 51.27280 3.38100 31934 ft 399 kts 278°
2026-05-05 10:17 51.28407 3.29421 31682 ft 399 kts 278°
2026-05-05 10:17 51.28964 3.25072 31419 ft 399 kts 278°
2026-05-05 10:17 51.29517 3.20731 31167 ft 399 kts 278°
2026-05-05 10:18 51.30069 3.16383 30916 ft 400 kts 278°
2026-05-05 10:18 51.30622 3.12031 30665 ft 399 kts 278°
2026-05-05 10:18 51.31168 3.07739 30419 ft 398 kts 278°
2026-05-05 10:18 51.31724 3.03348 30175 ft 397 kts 278°
2026-05-05 10:19 51.32264 2.99083 29925 ft 396 kts 279°
2026-05-05 10:19 51.32808 2.94770 29629 ft 395 kts 278°
2026-05-05 10:19 51.33346 2.90467 29344 ft 394 kts 278°
2026-05-05 10:19 51.33880 2.86179 29065 ft 393 kts 278°
2026-05-05 10:20 51.34407 2.81901 28785 ft 391 kts 278°
2026-05-05 10:20 51.34932 2.77634 28510 ft 390 kts 278°
2026-05-05 10:20 51.35454 2.73380 28235 ft 389 kts 278°
2026-05-05 10:20 51.35978 2.69135 27961 ft 388 kts 278°
2026-05-05 10:21 51.36500 2.64909 27694 ft 387 kts 278°
2026-05-05 10:21 51.37023 2.60693 27429 ft 386 kts 278°
2026-05-05 10:21 51.37541 2.56488 27167 ft 385 kts 278°
2026-05-05 10:21 51.38052 2.52318 26849 ft 379 kts 278°
2026-05-05 10:22 51.38555 2.48199 26428 ft 376 kts 278°
2026-05-05 10:22 51.39053 2.44103 26006 ft 373 kts 278°
2026-05-05 10:22 51.39543 2.40049 25589 ft 370 kts 278°
2026-05-05 10:22 51.40028 2.36027 25166 ft 367 kts 278°
2026-05-05 10:23 51.40498 2.32087 24753 ft 364 kts 278°
2026-05-05 10:23 51.40972 2.28128 24328 ft 361 kts 278°
2026-05-05 10:23 51.41443 2.24192 23901 ft 358 kts 278°
2026-05-05 10:23 51.41920 2.20283 23458 ft 357 kts 278°
2026-05-05 10:24 51.42398 2.16390 22978 ft 354 kts 279°
2026-05-05 10:24 51.42872 2.12547 22549 ft 351 kts 278°
2026-05-05 10:24 51.43340 2.08721 22114 ft 348 kts 278°
2026-05-05 10:24 51.43802 2.04927 21683 ft 345 kts 279°
2026-05-05 10:25 51.44260 2.01164 21264 ft 343 kts 278°
2026-05-05 10:25 51.44709 1.97427 20848 ft 341 kts 278°
2026-05-05 10:25 51.45150 1.93690 20418 ft 339 kts 278°
2026-05-05 10:25 51.45583 1.89976 19991 ft 338 kts 279°
2026-05-05 10:26 51.46013 1.86282 19578 ft 337 kts 279°
2026-05-05 10:26 51.46437 1.82638 19167 ft 336 kts 279°
2026-05-05 10:26 51.46866 1.78952 18750 ft 336 kts 279°
2026-05-05 10:26 51.47289 1.75270 18337 ft 335 kts 279°
2026-05-05 10:27 51.47708 1.71592 17883 ft 335 kts 279°
2026-05-05 10:27 51.48126 1.67930 17467 ft 333 kts 279°
2026-05-05 10:27 51.48494 1.64281 17062 ft 330 kts 274°
2026-05-05 10:27 51.48457 1.60611 16663 ft 328 kts 262°
2026-05-05 10:28 51.47958 1.57068 16260 ft 326 kts 250°
2026-05-05 10:28 51.47168 1.53671 15866 ft 324 kts 249°
2026-05-05 10:28 51.46380 1.50291 15471 ft 324 kts 249°
2026-05-05 10:28 51.45598 1.46906 15076 ft 323 kts 249°
2026-05-05 10:29 51.44822 1.43530 14683 ft 323 kts 249°
2026-05-05 10:29 51.43983 1.40197 14282 ft 322 kts 242°
2026-05-05 10:29 51.42747 1.37215 14009 ft 324 kts 229°
2026-05-05 10:29 51.41109 1.34735 13954 ft 326 kts 217°
2026-05-05 10:30 51.39273 1.32529 13322 ft 333 kts 216°
2026-05-05 10:30 51.37436 1.30344 13062 ft 326 kts 216°
2026-05-05 10:30 51.35625 1.28203 12799 ft 322 kts 216°
2026-05-05 10:30 51.33823 1.26079 12537 ft 321 kts 216°
2026-05-05 10:31 51.32034 1.23968 12278 ft 319 kts 216°
2026-05-05 10:31 51.30250 1.21864 12018 ft 318 kts 216°
2026-05-05 10:31 51.28477 1.19769 11765 ft 316 kts 216°
2026-05-05 10:31 51.26709 1.17680 11514 ft 315 kts 216°
2026-05-05 10:32 51.24950 1.15610 11261 ft 314 kts 216°
2026-05-05 10:32 51.23217 1.13575 11019 ft 313 kts 216°
2026-05-05 10:32 51.21466 1.11524 10769 ft 311 kts 216°
2026-05-05 10:32 51.19721 1.09486 10525 ft 311 kts 216°
2026-05-05 10:33 51.17980 1.07451 10283 ft 310 kts 216°
2026-05-05 10:33 51.16243 1.05424 10040 ft 309 kts 216°
2026-05-05 10:33 51.14530 1.03419 9851 ft 301 kts 218°
2026-05-05 10:33 51.13119 1.01039 9613 ft 294 kts 238°
2026-05-05 10:34 51.12279 0.98104 9296 ft 290 kts 250°
2026-05-05 10:34 51.11561 0.95124 8956 ft 288 kts 250°
2026-05-05 10:34 51.10845 0.92153 8618 ft 287 kts 250°
2026-05-05 10:34 51.10129 0.89198 8283 ft 285 kts 250°
2026-05-05 10:35 51.09414 0.86260 7945 ft 284 kts 250°
2026-05-05 10:35 51.08698 0.83337 7692 ft 283 kts 250°
2026-05-05 10:35 51.07985 0.80421 7447 ft 283 kts 250°
2026-05-05 10:35 51.07275 0.77512 7192 ft 282 kts 250°
2026-05-05 10:36 51.06565 0.74618 7007 ft 281 kts 250°
2026-05-05 10:36 51.05856 0.71732 6966 ft 280 kts 250°
2026-05-05 10:36 51.05145 0.68838 6972 ft 281 kts 250°
2026-05-05 10:36 51.04435 0.65949 6972 ft 281 kts 250°
2026-05-05 10:37 51.03721 0.63055 7095 ft 281 kts 250°
2026-05-05 10:37 51.03019 0.60203 7097 ft 281 kts 250°
2026-05-05 10:37 51.02307 0.57314 7099 ft 281 kts 250°
2026-05-05 10:37 51.01591 0.54425 7100 ft 281 kts 250°
2026-05-05 10:38 51.00871 0.51530 7101 ft 282 kts 250°
2026-05-05 10:38 51.00153 0.48631 7100 ft 282 kts 250°
2026-05-05 10:38 50.99436 0.45739 7097 ft 281 kts 250°
2026-05-05 10:38 50.98719 0.42852 7091 ft 281 kts 250°
2026-05-05 10:39 50.98000 0.39969 7084 ft 281 kts 249°
2026-05-05 10:39 50.97281 0.37086 7078 ft 281 kts 249°
2026-05-05 10:39 50.96561 0.34208 7072 ft 281 kts 249°
2026-05-05 10:39 50.95842 0.31326 7063 ft 281 kts 250°
2026-05-05 10:40 50.95457 0.28322 7054 ft 278 kts 273°
2026-05-05 10:40 50.95689 0.25289 7055 ft 277 kts 281°
2026-05-05 10:40 50.96012 0.22274 7048 ft 277 kts 281°
2026-05-05 10:40 50.96343 0.19264 7042 ft 277 kts 281°
2026-05-05 10:41 50.96680 0.16250 6823 ft 275 kts 281°
2026-05-05 10:41 50.97008 0.13308 6512 ft 267 kts 281°
2026-05-05 10:41 50.97324 0.10451 6291 ft 258 kts 281°
2026-05-05 10:41 50.97627 0.07694 6104 ft 249 kts 281°
2026-05-05 10:42 50.98199 0.02417 5758 ft 243 kts 281°
2026-05-05 10:42 50.98485 -0.00232 5567 ft 244 kts 281°
2026-05-05 10:42 50.98772 -0.02884 5394 ft 245 kts 281°
2026-05-05 10:43 50.99061 -0.05544 5216 ft 245 kts 281°
2026-05-05 10:43 50.99351 -0.08222 5031 ft 245 kts 281°
2026-05-05 10:43 50.99639 -0.10884 4861 ft 245 kts 281°
2026-05-05 10:43 50.99926 -0.13547 4672 ft 245 kts 281°
2026-05-05 10:44 51.00207 -0.16212 4501 ft 244 kts 281°
2026-05-05 10:44 51.00484 -0.18869 4317 ft 242 kts 281°
2026-05-05 10:44 51.00749 -0.21469 4119 ft 235 kts 282°
2026-05-05 10:44 51.00998 -0.23988 3951 ft 228 kts 281°
2026-05-05 10:45 51.01238 -0.26442 3774 ft 222 kts 281°
2026-05-05 10:45 51.01475 -0.28859 3589 ft 219 kts 282°
2026-05-05 10:45 51.01694 -0.31247 3414 ft 218 kts 281°
2026-05-05 10:45 51.01910 -0.33620 3237 ft 217 kts 281°
2026-05-05 10:46 51.02116 -0.35951 3090 ft 215 kts 281°
2026-05-05 10:46 51.02322 -0.38300 3004 ft 214 kts 281°
2026-05-05 10:46 51.02522 -0.40579 3008 ft 202 kts 281°
2026-05-05 10:46 51.02729 -0.42736 3010 ft 195 kts 287°
2026-05-05 10:47 51.03342 -0.44552 3000 ft 184 kts 322°
2026-05-05 10:47 51.04432 -0.45551 3014 ft 180 kts 339°
2026-05-05 10:47 51.05599 -0.46343 3008 ft 184 kts 341°
2026-05-05 10:47 51.06784 -0.47095 3009 ft 184 kts 342°
2026-05-05 10:48 51.08030 -0.47300 3001 ft 181 kts 14°
2026-05-05 10:48 51.09111 -0.46320 3019 ft 180 kts 38°
2026-05-05 10:48 51.10061 -0.45024 3011 ft 180 kts 41°
2026-05-05 10:48 51.10984 -0.43690 3007 ft 179 kts 45°
2026-05-05 10:49 51.11610 -0.41975 2901 ft 182 kts 71°
2026-05-05 10:49 51.11892 -0.40040 2701 ft 177 kts 75°
2026-05-05 10:49 51.12153 -0.38158 2474 ft 171 kts 74°
2026-05-05 10:49 51.12401 -0.36378 2266 ft 157 kts 75°
2026-05-05 10:50 51.12622 -0.34788 2040 ft 137 kts 73°
2026-05-05 10:50 51.12818 -0.33387 1865 ft 128 kts 73°
2026-05-05 10:50 51.13009 -0.32020 1701 ft 125 kts 73°
2026-05-05 10:50 51.13196 -0.30685 1534 ft 123 kts 73°
2026-05-05 10:51 51.13381 -0.29357 1364 ft 123 kts 73°
2026-05-05 10:51 51.13565 -0.28034 1188 ft 122 kts 73°
2026-05-05 10:51 51.13748 -0.26722 1023 ft 121 kts 73°
2026-05-05 10:51 51.13929 -0.25417 845 ft 121 kts 72°
2026-05-05 10:52 51.14112 -0.24100 674 ft 121 kts 72°
2026-05-05 10:52 51.14294 -0.22782 507 ft 122 kts 75°
2026-05-05 10:52 51.14470 -0.21466 347 ft 120 kts 74°
2026-05-05 10:52 51.14646 -0.20213 212 ft 110 kts 77°
2026-05-05 10:53 51.14788 -0.19207 210 ft 72 kts 77°
2026-05-05 10:53 51.14876 -0.18647 210 ft 32 kts 64°
2026-05-05 10:53 51.14969 -0.18445 208 ft 20 kts 50°
2026-05-05 10:53 51.15012 -0.18362 212 ft 6 kts 51°
2026-05-05 10:54 51.15040 -0.18308 207 ft 0 kts 52°
2026-05-05 10:54 51.15043 -0.18301 207 ft 0 kts 52°
2026-05-05 10:56 51.15045 -0.18297 211 ft 2 kts 52°
2026-05-05 10:56 51.15067 -0.18253 207 ft 8 kts 52°
2026-05-05 10:56 51.15108 -0.18159 215 ft 12 kts 63°
2026-05-05 10:57 51.15135 -0.18005 210 ft 17 kts 77°
2026-05-05 10:57 51.15168 -0.17794 210 ft 22 kts 77°
2026-05-05 10:57 51.15201 -0.17537 205 ft 20 kts 78°
2026-05-05 10:57 51.15239 -0.17355 213 ft 18 kts 38°
2026-05-05 10:58 51.15375 -0.17374 205 ft 22 kts 348°
2026-05-05 10:58 51.15527 -0.17428 215 ft 23 kts 347°
2026-05-05 10:58 51.15683 -0.17485 205 ft 23 kts 348°
2026-05-05 10:58 51.15766 -0.17450 208 ft 12 kts 67°
2026-05-05 10:59 51.15784 -0.17314 205 ft 13 kts 77°
2026-05-05 10:59 51.15806 -0.17164 209 ft 14 kts 77°
2026-05-05 10:59 51.15870 -0.17064 205 ft 12 kts 22°
2026-05-05 10:59 51.15927 -0.17013 212 ft 8 kts 43°
2026-05-05 11:00 51.15975 -0.17020 215 ft 8 kts 349°
2026-05-05 11:00 51.16021 -0.17045 212 ft 0 kts 332°